Time,TemperatureF,DewpointF,PressureIn,WindDirection,WindDirectionDegrees,WindSpeedMPH,WindSpeedGustMPH,Humidity,HourlyPrecipIn,Conditions,Clouds,dailyrainin,SoftwareType,DateUTC
2013-03-01 00:00:00,31.1,26.5,29.76,North,9,0.0,0.0,83,0.00,RA,,0.00,WeatherDisplay:10.37,2013-03-01 05:00:00,
2013-03-01 00:05:00,30.9,26.4,29.75,NNE,25,0.0,0.0,83,0.00,RA,,0.00,WeatherDisplay:10.37,2013-03-01 05:05:00,
2013-03-01 00:15:00,30.7,26.2,29.76,NE,41,0.0,0.0,83,0.00,CLR,,0.00,WeatherDisplay:10.37,2013-03-01 05:15:00,
2013-03-01 00:20:00,30.6,26.0,29.76,ENE,70,0.0,0.0,83,0.00,CLR,,0.00,WeatherDisplay:10.37,2013-03-01 05:20:00,
2013-03-01 00:25:00,30.7,26.2,29.76,SE,131,0.0,0.0,83,0.00,CLR,,0.00,WeatherDisplay:10.37,2013-03-01 05:25:00,
2013-03-01 00:35:00,30.6,26.0,29.76,North,9,0.0,0.0,83,0.00,CLR,,0.00,WeatherDisplay:10.37,2013-03-01 05:35:00,
2013-03-01 00:40:00,30.7,26.2,29.76,NNW,347,0.0,0.0,83,0.00,CLR,,0.00,WeatherDisplay:10.37,2013-03-01 05:40:00,
2013-03-01 00:50:00,30.6,26.0,29.76,NNW,327,0.0,7.0,83,0.00,CLR,,0.00,WeatherDisplay:10.37,2013-03-01 05:50:00,
2013-03-01 00:55:00,30.4,25.8,29.76,NNW,327,0.0,0.0,83,0.00,CLR,,0.00,WeatherDisplay:10.37,2013-03-01 05:55:00,
2013-03-01 01:00:00,30.4,25.8,29.76,North,5,0.0,0.0,83,0.00,CLR,,0.00,WeatherDisplay:10.37,2013-03-01 06:00:00,
2013-03-01 01:05:00,30.2,25.4,29.76,NNE,22,0.0,0.0,82,0.00,CLR,,0.00,WeatherDisplay:10.37,2013-03-01 06:05:00,
2013-03-01 01:10:00,30.0,25.2,29.77,North,2,0.0,0.0,82,0.00,CLR,,0.00,WeatherDisplay:10.37,2013-03-01 06:10:00,
2013-03-01 01:15:00,29.9,25.1,29.77,NNW,337,0.0,0.0,82,0.00,CLR,,0.00,WeatherDisplay:10.37,2013-03-01 06:15:00,
2013-03-01 01:20:00,29.8,25.0,29.77,NNW,336,0.0,0.0,82,0.00,CLR,,0.00,WeatherDisplay:10.37,2013-03-01 06:20:00,
2013-03-01 01:25:00,29.8,25.0,29.77,NNW,331,0.0,0.0,82,0.00,CLR,,0.00,WeatherDisplay:10.37,2013-03-01 06:25:00,
2013-03-01 01:30:00,30.0,25.2,29.77,WNW,303,0.0,0.0,82,0.00,CLR,,0.00,WeatherDisplay:10.37,2013-03-01 06:30:00,
2013-03-01 01:35:00,30.0,25.2,29.77,NNW,344,0.0,0.0,82,0.00,CLR,,0.00,WeatherDisplay:10.37,2013-03-01 06:35:00,
2013-03-01 01:40:00,30.0,25.2,29.77,NNW,347,0.0,0.0,82,0.00,CLR,,0.00,WeatherDisplay:10.37,2013-03-01 06:40:00,
2013-03-01 01:45:00,30.0,25.2,29.77,North,360,0.0,0.0,82,0.00,CLR,,0.00,WeatherDisplay:10.37,2013-03-01 06:45:00,
2013-03-01 01:50:00,30.2,25.4,29.77,North,352,0.0,0.0,82,0.00,CLR,,0.00,WeatherDisplay:10.37,2013-03-01 06:50:00,
2013-03-01 01:55:00,30.2,25.4,29.77,NNW,338,0.0,0.0,82,0.00,CLR,,0.00,WeatherDisplay:10.37,2013-03-01 06:55:00,
2013-03-01 02:05:00,30.2,25.4,29.78,NNW,346,0.0,0.0,82,0.00,CLR,,0.00,WeatherDisplay:10.37,2013-03-01 07:05:00,
2013-03-01 02:10:00,30.2,25.4,29.78,NNW,338,0.0,0.0,82,0.00,CLR,,0.00,WeatherDisplay:10.37,2013-03-01 07:10:00,
2013-03-01 02:15:00,30.4,25.2,29.77,NNW,338,0.0,0.0,81,0.00,CLR,,0.00,WeatherDisplay:10.37,2013-03-01 07:15:00,
2013-03-01 02:20:00,30.4,25.2,29.77,NW,310,0.0,0.0,81,0.00,CLR,,0.00,WeatherDisplay:10.37,2013-03-01 07:20:00,
2013-03-01 02:25:00,30.3,25.1,29.78,WNW,301,0.0,0.0,81,0.00,CLR,,0.00,WeatherDisplay:10.37,2013-03-01 07:25:00,
2013-03-01 02:30:00,30.3,24.8,29.78,NNW,336,0.0,0.0,80,0.00,CLR,,0.00,WeatherDisplay:10.37,2013-03-01 07:30:00,
2013-03-01 02:35:00,30.2,24.8,29.78,WNW,290,0.0,0.0,80,0.00,CLR,,0.00,WeatherDisplay:10.37,2013-03-01 07:35:00,
2013-03-01 02:40:00,30.3,24.9,29.78,West,261,0.0,0.0,80,0.00,CLR,,0.00,WeatherDisplay:10.37,2013-03-01 07:40:00,
2013-03-01 02:45:00,30.3,24.9,29.77,SW,215,0.0,0.0,80,0.00,CLR,,0.00,WeatherDisplay:10.37,2013-03-01 07:45:00,
2013-03-01 02:50:00,30.4,24.9,29.77,SW,219,0.0,0.0,80,0.00,CLR,,0.00,WeatherDisplay:10.37,2013-03-01 07:50:00,
2013-03-01 02:55:00,30.3,24.6,29.77,WNW,299,0.0,0.0,79,0.00,CLR,,0.00,WeatherDisplay:10.37,2013-03-01 07:55:00,
2013-03-01 03:00:00,30.4,24.6,29.77,WNW,295,0.0,0.0,79,0.00,CLR,,0.00,WeatherDisplay:10.37,2013-03-01 08:00:00,
2013-03-01 03:05:00,30.4,24.6,29.77,WSW,251,0.0,0.0,79,0.00,CLR,,0.00,WeatherDisplay:10.37,2013-03-01 08:05:00,
2013-03-01 03:10:00,30.2,24.5,29.77,NNW,338,0.0,0.0,79,0.00,CLR,,0.00,WeatherDisplay:10.37,2013-03-01 08:10:00,
2013-03-01 03:15:00,30.4,24.6,29.77,NE,54,0.0,0.0,79,0.00,CLR,,0.00,WeatherDisplay:10.37,2013-03-01 08:15:00,
2013-03-01 03:20:00,30.4,24.6,29.77,SE,133,0.0,0.0,79,0.00,CLR,,0.00,WeatherDisplay:10.37,2013-03-01 08:20:00,
2013-03-01 03:25:00,30.2,24.5,29.77,SE,141,0.0,0.0,79,0.00,CLR,,0.00,WeatherDisplay:10.37,2013-03-01 08:25:00,
2013-03-01 03:30:00,30.2,24.5,29.77,ESE,120,0.0,0.0,79,0.00,CLR,,0.00,WeatherDisplay:10.37,2013-03-01 08:30:00,
2013-03-01 03:35:00,30.2,24.1,29.77,ENE,64,0.0,0.0,78,0.00,CLR,,0.00,WeatherDisplay:10.37,2013-03-01 08:35:00,
2013-03-01 03:40:00,30.1,24.1,29.77,NNE,17,0.0,0.0,78,0.00,CLR,,0.00,WeatherDisplay:10.37,2013-03-01 08:40:00,
2013-03-01 03:45:00,30.0,24.0,29.77,NE,37,0.0,0.0,78,0.00,CLR,,0.00,WeatherDisplay:10.37,2013-03-01 08:45:00,
2013-03-01 03:50:00,30.0,24.0,29.77,North,359,0.0,0.0,78,0.00,CLR,,0.00,WeatherDisplay:10.37,2013-03-01 08:50:00,
2013-03-01 03:55:00,30.0,24.0,29.77,WNW,283,0.0,0.0,78,0.00,CLR,,0.00,WeatherDisplay:10.37,2013-03-01 08:55:00,
2013-03-01 04:00:00,30.2,24.2,29.77,WNW,287,0.0,0.0,78,0.00,CLR,,0.00,WeatherDisplay:10.37,2013-03-01 09:00:00,
2013-03-01 04:05:00,30.2,24.2,29.77,WNW,287,0.0,0.0,78,0.00,CLR,,0.00,WeatherDisplay:10.37,2013-03-01 09:05:00,
2013-03-01 04:10:00,30.2,24.2,29.77,West,270,0.0,0.0,78,0.00,CLR,,0.00,WeatherDisplay:10.37,2013-03-01 09:10:00,
2013-03-01 04:15:00,29.8,23.5,29.78,SW,215,0.0,0.0,77,0.00,CLR,,0.00,WeatherDisplay:10.37,2013-03-01 09:15:00,
2013-03-01 04:25:00,29.8,23.2,29.78,SW,216,0.0,0.0,76,0.00,CLR,,0.00,WeatherDisplay:10.37,2013-03-01 09:25:00,
2013-03-01 04:30:00,29.7,23.0,29.78,SSE,159,0.0,0.0,76,0.00,CLR,,0.00,WeatherDisplay:10.37,2013-03-01 09:30:00,
2013-03-01 04:35:00,29.8,23.2,29.78,SSW,197,0.0,0.0,76,0.00,CLR,,0.00,WeatherDisplay:10.37,2013-03-01 09:35:00,
2013-03-01 04:40:00,29.8,23.2,29.78,West,277,0.0,0.0,76,0.00,CLR,,0.00,WeatherDisplay:10.37,2013-03-01 09:40:00,
2013-03-01 04:45:00,29.7,22.8,29.78,WNW,292,0.0,0.0,75,0.00,CLR,,0.00,WeatherDisplay:10.37,2013-03-01 09:45:00,
2013-03-01 04:55:00,29.7,22.7,29.78,West,268,0.0,0.0,75,0.00,CLR,,0.00,WeatherDisplay:10.37,2013-03-01 09:55:00,
2013-03-01 05:00:00,29.5,22.5,29.78,WNW,295,0.0,0.0,75,0.00,CLR,,0.00,WeatherDisplay:10.37,2013-03-01 10:00:00,
2013-03-01 05:05:00,29.5,22.5,29.78,WNW,297,0.0,0.0,75,0.00,CLR,,0.00,WeatherDisplay:10.37,2013-03-01 10:05:00,
2013-03-01 05:10:00,29.5,22.5,29.78,WNW,292,0.0,0.0,75,0.00,CLR,,0.00,WeatherDisplay:10.37,2013-03-01 10:10:00,
2013-03-01 05:15:00,29.5,22.8,29.78,NW,311,0.0,0.0,76,0.00,CLR,,0.00,WeatherDisplay:10.37,2013-03-01 10:15:00,
2013-03-01 05:20:00,29.5,22.8,29.78,NNW,330,0.0,0.0,76,0.00,CLR,,0.00,WeatherDisplay:10.37,2013-03-01 10:20:00,
2013-03-01 05:25:00,29.5,22.8,29.78,WNW,303,0.0,0.0,76,0.00,CLR,,0.00,WeatherDisplay:10.37,2013-03-01 10:25:00,
2013-03-01 05:30:00,29.3,22.4,29.78,WNW,291,0.0,0.0,75,0.00,CLR,,0.00,WeatherDisplay:10.37,2013-03-01 10:30:00,
2013-03-01 05:35:00,29.3,22.4,29.79,North,6,0.0,0.0,75,0.00,CLR,,0.00,WeatherDisplay:10.37,2013-03-01 10:35:00,
2013-03-01 05:40:00,29.3,22.4,29.79,ENE,67,0.0,0.0,75,0.00,CLR,,0.00,WeatherDisplay:10.37,2013-03-01 10:40:00,
2013-03-01 05:45:00,29.3,22.4,29.79,North,11,0.0,0.0,75,0.00,CLR,,0.00,WeatherDisplay:10.37,2013-03-01 10:45:00,
2013-03-01 05:50:00,29.3,22.4,29.79,NW,320,0.0,0.0,75,0.00,CLR,,0.00,WeatherDisplay:10.37,2013-03-01 10:50:00,
2013-03-01 05:55:00,29.3,22.4,29.79,NNW,332,0.0,0.0,75,0.00,CLR,,0.00,WeatherDisplay:10.37,2013-03-01 10:55:00,
2013-03-01 06:00:00,29.3,22.4,29.79,WNW,282,0.0,0.0,75,0.00,CLR,,0.00,WeatherDisplay:10.37,2013-03-01 11:00:00,
2013-03-01 06:05:00,29.3,22.4,29.79,SW,236,0.0,0.0,75,0.00,CLR,,0.00,WeatherDisplay:10.37,2013-03-01 11:05:00,
2013-03-01 06:15:00,29.1,22.2,29.79,West,273,0.0,0.0,75,0.00,CLR,,0.00,WeatherDisplay:10.37,2013-03-01 11:15:00,
2013-03-01 06:20:00,29.0,22.0,29.79,NNW,339,0.0,0.0,75,0.00,CLR,,0.00,WeatherDisplay:10.37,2013-03-01 11:20:00,
2013-03-01 06:25:00,28.9,22.0,29.79,NNW,347,0.0,0.0,75,0.00,CLR,,0.00,WeatherDisplay:10.37,2013-03-01 11:25:00,
2013-03-01 06:30:00,29.1,22.2,29.79,WNW,303,0.0,0.0,75,0.00,CLR,,0.00,WeatherDisplay:10.37,2013-03-01 11:30:00,
2013-03-01 06:40:00,28.9,21.7,29.79,SSE,162,0.0,0.0,74,0.00,CLR,,0.00,WeatherDisplay:10.37,2013-03-01 11:40:00,
2013-03-01 06:45:00,28.9,21.7,29.79,SSE,153,0.0,0.0,74,0.00,CLR,,0.00,WeatherDisplay:10.37,2013-03-01 11:45:00,
2013-03-01 06:55:00,28.9,21.7,29.80,NNE,16,0.0,0.0,74,0.00,CLR,,0.00,WeatherDisplay:10.37,2013-03-01 11:55:00,
2013-03-01 07:00:00,29.1,21.8,29.79,NE,34,0.0,0.0,74,0.00,CLR,,0.00,WeatherDisplay:10.37,2013-03-01 12:00:00,
2013-03-01 07:10:00,28.9,21.7,29.80,NW,312,0.0,0.0,74,0.00,CLR,,0.00,WeatherDisplay:10.37,2013-03-01 12:10:00,
2013-03-01 07:15:00,28.9,21.7,29.80,NW,323,0.0,0.0,74,0.00,CLR,,0.00,WeatherDisplay:10.37,2013-03-01 12:15:00,
2013-03-01 07:20:00,28.9,21.7,29.80,NNW,329,0.0,0.0,74,0.00,CLR,,0.00,WeatherDisplay:10.37,2013-03-01 12:20:00,
2013-03-01 07:25:00,28.9,21.4,29.80,NNW,332,0.0,0.0,73,0.00,CLR,,0.00,WeatherDisplay:10.37,2013-03-01 12:25:00,
2013-03-01 07:30:00,28.9,21.4,29.81,NNW,339,0.0,0.0,73,0.00,CLR,,0.00,WeatherDisplay:10.37,2013-03-01 12:30:00,
2013-03-01 07:35:00,28.9,21.4,29.81,North,352,0.0,0.0,73,0.00,CLR,,0.00,WeatherDisplay:10.37,2013-03-01 12:35:00,
2013-03-01 07:40:00,28.9,21.4,29.81,North,349,0.0,0.0,73,0.00,CLR,,0.00,WeatherDisplay:10.37,2013-03-01 12:40:00,
2013-03-01 07:45:00,29.0,21.4,29.81,NNW,340,0.0,0.0,73,0.00,CLR,,0.00,WeatherDisplay:10.37,2013-03-01 12:45:00,
2013-03-01 07:50:00,29.1,21.5,29.82,WNW,285,0.0,0.0,73,0.00,CLR,,0.00,WeatherDisplay:10.37,2013-03-01 12:50:00,
2013-03-01 07:55:00,28.9,21.4,29.82,WSW,238,0.0,0.0,73,0.00,CLR,,0.00,WeatherDisplay:10.37,2013-03-01 12:55:00,
2013-03-01 08:00:00,29.1,21.5,29.82,West,269,0.0,0.0,73,0.00,CLR,,0.00,WeatherDisplay:10.37,2013-03-01 13:00:00,
2013-03-01 08:05:00,29.3,21.7,29.82,WNW,301,0.0,0.0,73,0.00,CLR,,0.00,WeatherDisplay:10.37,2013-03-01 13:05:00,
2013-03-01 08:10:00,29.1,21.5,29.83,NW,305,0.0,0.0,73,0.00,CLR,,0.00,WeatherDisplay:10.37,2013-03-01 13:10:00,
2013-03-01 08:15:00,29.3,21.7,29.82,NNW,341,0.0,0.0,73,0.00,CLR,,0.00,WeatherDisplay:10.37,2013-03-01 13:15:00,
2013-03-01 08:20:00,29.1,21.5,29.83,North,353,0.0,0.0,73,0.00,CLR,,0.00,WeatherDisplay:10.37,2013-03-01 13:20:00,
2013-03-01 08:25:00,29.1,21.5,29.83,NNW,329,0.0,0.0,73,0.00,CLR,,0.00,WeatherDisplay:10.37,2013-03-01 13:25:00,
2013-03-01 08:30:00,29.1,21.5,29.83,SW,232,0.0,0.0,73,0.00,CLR,,0.00,WeatherDisplay:10.37,2013-03-01 13:30:00,
2013-03-01 08:35:00,29.1,21.5,29.84,SW,225,0.0,0.0,73,0.00,CLR,,0.00,WeatherDisplay:10.37,2013-03-01 13:35:00,
2013-03-01 08:40:00,29.3,21.7,29.85,WSW,240,0.0,0.0,73,0.00,CLR,,0.00,WeatherDisplay:10.37,2013-03-01 13:40:00,
2013-03-01 08:45:00,29.1,21.5,29.85,WNW,303,0.0,0.0,73,0.00,CLR,,0.00,WeatherDisplay:10.37,2013-03-01 13:45:00,
2013-03-01 08:50:00,29.3,21.7,29.85,North,5,0.0,0.0,73,0.00,CLR,,0.00,WeatherDisplay:10.37,2013-03-01 13:50:00,
2013-03-01 08:55:00,29.3,21.7,29.85,SSE,150,0.0,0.0,73,0.00,CLR,,0.00,WeatherDisplay:10.37,2013-03-01 13:55:00,
2013-03-01 09:00:00,29.5,22.2,29.85,SSW,207,0.0,0.0,74,0.00,CLR,,0.00,WeatherDisplay:10.37,2013-03-01 14:00:00,
2013-03-01 09:05:00,29.5,22.2,29.85,SW,234,0.0,0.0,74,0.00,CLR,,0.00,WeatherDisplay:10.37,2013-03-01 14:05:00,
2013-03-01 09:10:00,29.8,22.6,29.84,WSW,242,0.0,0.0,74,0.00,CLR,,0.00,WeatherDisplay:10.37,2013-03-01 14:10:00,
2013-03-01 09:15:00,29.8,22.6,29.84,West,276,0.0,0.0,74,0.00,CLR,,0.00,WeatherDisplay:10.37,2013-03-01 14:15:00,
2013-03-01 09:20:00,29.8,22.6,29.84,WNW,289,0.0,0.0,74,0.00,CLR,,0.00,WeatherDisplay:10.37,2013-03-01 14:20:00,
2013-03-01 09:25:00,29.8,22.6,29.84,WNW,298,0.0,0.0,74,0.00,CLR,,0.00,WeatherDisplay:10.37,2013-03-01 14:25:00,
2013-03-01 09:30:00,30.4,23.1,29.84,North,351,0.0,0.0,74,0.00,CLR,,0.00,WeatherDisplay:10.37,2013-03-01 14:30:00,
2013-03-01 09:35:00,30.2,22.9,29.84,ENE,58,0.0,0.0,74,0.00,CLR,,0.00,WeatherDisplay:10.37,2013-03-01 14:35:00,
2013-03-01 09:45:00,30.4,23.1,29.84,NNE,17,0.0,0.0,74,0.00,CLR,,0.00,WeatherDisplay:10.37,2013-03-01 14:45:00,
2013-03-01 09:50:00,30.4,23.1,29.84,NNW,343,0.0,0.0,74,0.00,CLR,,0.00,WeatherDisplay:10.37,2013-03-01 14:50:00,
2013-03-01 09:55:00,30.6,22.9,29.84,NNW,343,0.0,0.0,73,0.00,CLR,,0.00,WeatherDisplay:10.37,2013-03-01 14:55:00,
2013-03-01 10:00:00,30.6,22.9,29.84,NNW,340,0.0,0.0,73,0.00,CLR,,0.00,WeatherDisplay:10.37,2013-03-01 15:00:00,
2013-03-01 10:10:00,30.7,23.0,29.84,NW,309,0.0,0.0,73,0.00,CLR,,0.00,WeatherDisplay:10.37,2013-03-01 15:10:00,
2013-03-01 10:15:00,30.7,23.1,29.84,NNW,330,0.0,0.0,73,0.00,CLR,,0.00,WeatherDisplay:10.37,2013-03-01 15:15:00,
2013-03-01 10:20:00,30.9,23.3,29.84,West,265,0.0,0.0,73,0.00,CLR,,0.00,WeatherDisplay:10.37,2013-03-01 15:20:00,
2013-03-01 10:25:00,30.8,23.2,29.84,WNW,298,0.0,0.0,73,0.00,CLR,,0.00,WeatherDisplay:10.37,2013-03-01 15:25:00,
2013-03-01 10:30:00,30.9,23.0,29.84,WNW,291,0.0,0.0,72,0.00,CLR,,0.00,WeatherDisplay:10.37,2013-03-01 15:30:00,
2013-03-01 10:35:00,30.9,23.0,29.84,WNW,298,0.0,0.0,72,0.00,CLR,,0.00,WeatherDisplay:10.37,2013-03-01 15:35:00,
2013-03-01 10:40:00,30.7,22.8,29.84,NW,318,0.0,0.0,72,0.00,CLR,,0.00,WeatherDisplay:10.37,2013-03-01 15:40:00,
2013-03-01 10:45:00,30.7,22.8,29.85,WNW,289,0.0,0.0,72,0.00,CLR,,0.00,WeatherDisplay:10.37,2013-03-01 15:45:00,
2013-03-01 10:50:00,30.9,23.0,29.85,South,191,0.0,2.0,72,0.00,CLR,,0.00,WeatherDisplay:10.37,2013-03-01 15:50:00,
2013-03-01 10:55:00,30.9,23.0,29.85,South,176,0.0,2.0,72,0.00,CLR,,0.00,WeatherDisplay:10.37,2013-03-01 15:55:00,
2013-03-01 11:00:00,31.3,23.3,29.85,NW,314,0.0,0.0,72,0.00,CLR,,0.00,WeatherDisplay:10.37,2013-03-01 16:00:00,
2013-03-01 11:05:00,31.5,23.1,29.85,NW,323,0.0,0.0,71,0.00,CLR,,0.00,WeatherDisplay:10.37,2013-03-01 16:05:00,
2013-03-01 11:10:00,31.3,23.0,29.85,WNW,290,0.0,0.0,71,0.00,CLR,,0.00,WeatherDisplay:10.37,2013-03-01 16:10:00,
2013-03-01 11:20:00,31.5,23.1,29.86,NW,321,0.0,0.0,71,0.00,CLR,,0.00,WeatherDisplay:10.37,2013-03-01 16:20:00,
2013-03-01 11:25:00,31.6,23.0,29.86,North,10,2.0,2.0,70,0.00,CLR,,0.00,WeatherDisplay:10.37,2013-03-01 16:25:00,
2013-03-01 11:30:00,31.8,23.1,29.86,ESE,116,0.0,2.0,70,0.02,RA,,0.02,WeatherDisplay:10.37,2013-03-01 16:30:00,
2013-03-01 11:35:00,32.0,23.3,29.86,ESE,116,0.0,0.0,70,0.00,RA,,0.02,WeatherDisplay:10.37,2013-03-01 16:35:00,
2013-03-01 11:40:00,32.0,23.0,29.86,NNW,331,0.0,0.0,69,0.00,CLR,,0.02,WeatherDisplay:10.37,2013-03-01 16:40:00,
2013-03-01 11:45:00,32.2,23.1,29.86,NNW,339,0.0,0.0,69,0.00,CLR,,0.02,WeatherDisplay:10.37,2013-03-01 16:45:00,
2013-03-01 11:50:00,32.2,23.1,29.85,SE,125,0.0,0.0,69,0.00,CLR,,0.02,WeatherDisplay:10.37,2013-03-01 16:50:00,
2013-03-01 11:55:00,32.2,22.8,29.86,East,98,0.0,0.0,68,0.00,CLR,,0.02,WeatherDisplay:10.37,2013-03-01 16:55:00,
2013-03-01 12:00:00,32.4,23.0,29.86,NNW,329,0.0,4.0,68,0.00,CLR,,0.02,WeatherDisplay:10.37,2013-03-01 17:00:00,
2013-03-01 12:05:00,32.4,22.6,29.86,NW,325,0.0,0.0,67,0.00,CLR,,0.02,WeatherDisplay:10.37,2013-03-01 17:05:00,
2013-03-01 12:10:00,32.4,22.6,29.85,NW,319,0.0,0.0,67,0.00,CLR,,0.02,WeatherDisplay:10.37,2013-03-01 17:10:00,
2013-03-01 12:15:00,32.4,22.3,29.86,NNW,332,0.0,0.0,66,0.00,CLR,,0.02,WeatherDisplay:10.37,2013-03-01 17:15:00,
2013-03-01 12:20:00,32.5,22.4,29.86,NE,43,0.0,0.0,66,0.00,CLR,,0.02,WeatherDisplay:10.37,2013-03-01 17:20:00,
2013-03-01 12:25:00,32.4,22.3,29.86,ENE,60,0.0,0.0,66,0.00,CLR,,0.02,WeatherDisplay:10.37,2013-03-01 17:25:00,
2013-03-01 12:30:00,32.4,21.9,29.86,North,357,0.0,0.0,65,0.00,CLR,,0.02,WeatherDisplay:10.37,2013-03-01 17:30:00,
2013-03-01 12:35:00,32.4,21.9,29.86,NNW,328,0.0,0.0,65,0.00,CLR,,0.02,WeatherDisplay:10.37,2013-03-01 17:35:00,
2013-03-01 12:40:00,32.2,21.7,29.85,West,262,2.0,4.0,65,0.00,CLR,,0.02,WeatherDisplay:10.37,2013-03-01 17:40:00,
2013-03-01 12:45:00,32.2,21.4,29.85,South,183,0.0,0.0,64,0.00,CLR,,0.02,WeatherDisplay:10.37,2013-03-01 17:45:00,
2013-03-01 12:50:00,32.2,21.4,29.85,ENE,78,0.0,0.0,64,0.00,CLR,,0.02,WeatherDisplay:10.37,2013-03-01 17:50:00,
2013-03-01 12:55:00,32.2,21.4,29.85,NW,313,0.0,0.0,64,0.00,CLR,,0.02,WeatherDisplay:10.37,2013-03-01 17:55:00,
2013-03-01 13:00:00,32.2,21.0,29.85,NNW,343,0.0,0.0,63,0.00,CLR,,0.02,WeatherDisplay:10.37,2013-03-01 18:00:00,
2013-03-01 13:05:00,32.3,21.1,29.85,North,358,0.0,0.0,63,0.00,CLR,,0.02,WeatherDisplay:10.37,2013-03-01 18:05:00,
2013-03-01 13:10:00,32.4,21.2,29.85,NNW,347,0.0,0.0,63,0.00,CLR,,0.02,WeatherDisplay:10.37,2013-03-01 18:10:00,
2013-03-01 13:15:00,32.4,21.2,29.85,WNW,299,0.0,0.0,63,0.00,CLR,,0.02,WeatherDisplay:10.37,2013-03-01 18:15:00,
2013-03-01 13:20:00,32.2,20.6,29.85,WNW,284,0.0,0.0,62,0.00,CLR,,0.02,WeatherDisplay:10.37,2013-03-01 18:20:00,
2013-03-01 13:25:00,32.2,20.6,29.85,West,281,0.0,0.0,62,0.00,CLR,,0.02,WeatherDisplay:10.37,2013-03-01 18:25:00,
2013-03-01 13:30:00,32.2,21.0,29.85,WNW,298,0.0,0.0,63,0.00,CLR,,0.02,WeatherDisplay:10.37,2013-03-01 18:30:00,
2013-03-01 13:35:00,32.1,20.9,29.84,NNW,337,0.0,0.0,63,0.00,CLR,,0.02,WeatherDisplay:10.37,2013-03-01 18:35:00,
2013-03-01 13:40:00,32.2,21.0,29.84,North,352,0.0,0.0,63,0.00,CLR,,0.02,WeatherDisplay:10.37,2013-03-01 18:40:00,
2013-03-01 13:50:00,32.2,21.0,29.84,WSW,256,0.0,0.0,63,0.00,CLR,,0.02,WeatherDisplay:10.37,2013-03-01 18:50:00,
2013-03-01 13:55:00,32.4,21.5,29.84,North,350,0.0,0.0,64,0.00,CLR,,0.02,WeatherDisplay:10.37,2013-03-01 18:55:00,
2013-03-01 14:00:00,32.2,21.0,29.84,North,10,0.0,2.0,63,0.00,CLR,,0.02,WeatherDisplay:10.37,2013-03-01 19:00:00,
2013-03-01 14:05:00,32.2,21.0,29.84,NNW,340,0.0,0.0,63,0.00,CLR,,0.02,WeatherDisplay:10.37,2013-03-01 19:05:00,
2013-03-01 14:10:00,32.1,20.9,29.85,West,278,0.0,0.0,63,0.00,CLR,,0.02,WeatherDisplay:10.37,2013-03-01 19:10:00,
2013-03-01 14:15:00,31.8,20.6,29.85,WNW,302,0.0,0.0,63,0.00,CLR,,0.02,WeatherDisplay:10.37,2013-03-01 19:15:00,
2013-03-01 14:20:00,31.6,20.5,29.85,NNW,334,0.0,0.0,63,0.00,CLR,,0.02,WeatherDisplay:10.37,2013-03-01 19:20:00,
2013-03-01 14:25:00,31.6,20.5,29.85,NNW,331,1.0,1.0,63,0.00,CLR,,0.02,WeatherDisplay:10.37,2013-03-01 19:25:00,
2013-03-01 14:30:00,31.6,20.5,29.85,NW,316,0.0,1.0,63,0.00,CLR,,0.02,WeatherDisplay:10.37,2013-03-01 19:30:00,
2013-03-01 14:35:00,31.6,20.4,29.85,NW,322,0.0,0.0,63,0.00,CLR,,0.02,WeatherDisplay:10.37,2013-03-01 19:35:00,
2013-03-01 14:40:00,31.5,19.9,29.85,West,277,0.0,0.0,62,0.00,CLR,,0.02,WeatherDisplay:10.37,2013-03-01 19:40:00,
2013-03-01 14:45:00,31.3,19.8,29.85,WSW,257,0.0,0.0,62,0.00,CLR,,0.02,WeatherDisplay:10.37,2013-03-01 19:45:00,
2013-03-01 14:50:00,31.1,19.6,29.85,NNW,333,0.0,0.0,62,0.00,CLR,,0.02,WeatherDisplay:10.37,2013-03-01 19:50:00,
2013-03-01 14:55:00,31.1,19.6,29.85,North,2,0.0,0.0,62,0.00,CLR,,0.02,WeatherDisplay:10.37,2013-03-01 19:55:00,
2013-03-01 15:00:00,31.1,19.6,29.86,NNW,345,0.0,0.0,62,0.00,CLR,,0.02,WeatherDisplay:10.37,2013-03-01 20:00:00,
2013-03-01 15:05:00,31.1,19.6,29.85,North,3,0.0,0.0,62,0.00,CLR,,0.02,WeatherDisplay:10.37,2013-03-01 20:05:00,
2013-03-01 15:10:00,31.3,19.8,29.85,North,351,0.0,0.0,62,0.00,CLR,,0.02,WeatherDisplay:10.37,2013-03-01 20:10:00,
2013-03-01 15:15:00,30.9,19.4,29.85,NNW,336,0.0,0.0,62,0.00,CLR,,0.02,WeatherDisplay:10.37,2013-03-01 20:15:00,
2013-03-01 15:20:00,30.9,19.0,29.86,North,352,0.0,0.0,61,0.00,CLR,,0.02,WeatherDisplay:10.37,2013-03-01 20:20:00,
2013-03-01 15:25:00,30.9,19.0,29.85,North,352,0.0,0.0,61,0.00,CLR,,0.02,WeatherDisplay:10.37,2013-03-01 20:25:00,
2013-03-01 15:30:00,31.0,19.1,29.85,NNW,329,0.0,0.0,61,0.00,CLR,,0.02,WeatherDisplay:10.37,2013-03-01 20:30:00,
2013-03-01 15:40:00,30.9,19.4,29.85,NNW,339,0.0,0.0,62,0.00,CLR,,0.02,WeatherDisplay:10.37,2013-03-01 20:40:00,
2013-03-01 15:45:00,30.8,19.3,29.86,North,350,0.0,0.0,62,0.00,CLR,,0.02,WeatherDisplay:10.37,2013-03-01 20:45:00,
2013-03-01 15:50:00,30.7,19.2,29.86,NNW,327,0.0,0.0,62,0.00,CLR,,0.02,WeatherDisplay:10.37,2013-03-01 20:50:00,
2013-03-01 15:55:00,30.6,19.1,29.86,NNE,20,0.0,0.0,62,0.00,CLR,,0.02,WeatherDisplay:10.37,2013-03-01 20:55:00,
2013-03-01 16:00:00,30.5,19.0,29.86,NNE,31,0.0,0.0,62,0.00,CLR,,0.02,WeatherDisplay:10.37,2013-03-01 21:00:00,
2013-03-01 16:05:00,30.6,19.1,29.86,SSW,207,0.0,0.0,62,0.00,CLR,,0.02,WeatherDisplay:10.37,2013-03-01 21:05:00,
2013-03-01 16:10:00,30.4,18.9,29.86,ESE,109,0.0,0.0,62,0.00,CLR,,0.02,WeatherDisplay:10.37,2013-03-01 21:10:00,
2013-03-01 16:15:00,30.4,18.9,29.86,NE,41,0.0,0.0,62,0.00,CLR,,0.02,WeatherDisplay:10.37,2013-03-01 21:15:00,
2013-03-01 16:20:00,30.4,18.5,29.86,North,3,0.0,0.0,61,0.00,CLR,,0.02,WeatherDisplay:10.37,2013-03-01 21:20:00,
2013-03-01 16:25:00,30.4,18.5,29.86,NNW,338,0.0,0.0,61,0.00,CLR,,0.02,WeatherDisplay:10.37,2013-03-01 21:25:00,
2013-03-01 16:30:00,30.2,18.4,29.86,NNW,346,0.0,0.0,61,0.00,CLR,,0.02,WeatherDisplay:10.37,2013-03-01 21:30:00,
2013-03-01 16:35:00,30.0,18.2,29.86,NE,46,0.0,0.0,61,0.00,CLR,,0.02,WeatherDisplay:10.37,2013-03-01 21:35:00,
2013-03-01 16:40:00,29.8,18.0,29.86,ENE,75,0.0,0.0,61,0.00,CLR,,0.02,WeatherDisplay:10.37,2013-03-01 21:40:00,
2013-03-01 16:45:00,29.9,18.1,29.87,ENE,65,0.0,0.0,61,0.00,CLR,,0.02,WeatherDisplay:10.37,2013-03-01 21:45:00,
2013-03-01 16:50:00,29.8,18.0,29.87,WNW,285,0.0,0.0,61,0.00,CLR,,0.02,WeatherDisplay:10.37,2013-03-01 21:50:00,
2013-03-01 16:55:00,29.8,18.0,29.87,NW,316,0.0,0.0,61,0.00,CLR,,0.02,WeatherDisplay:10.37,2013-03-01 21:55:00,
2013-03-01 17:00:00,29.5,17.7,29.87,NNW,338,0.0,0.0,61,0.00,CLR,,0.02,WeatherDisplay:10.37,2013-03-01 22:00:00,
2013-03-01 17:05:00,29.5,17.7,29.87,NW,320,0.0,0.0,61,0.00,CLR,,0.02,WeatherDisplay:10.37,2013-03-01 22:05:00,
2013-03-01 17:10:00,29.5,17.7,29.87,NW,311,0.0,0.0,61,0.00,CLR,,0.02,WeatherDisplay:10.37,2013-03-01 22:10:00,
2013-03-01 17:15:00,29.3,17.9,29.87,NW,325,0.0,0.0,62,0.00,CLR,,0.02,WeatherDisplay:10.37,2013-03-01 22:15:00,
2013-03-01 17:20:00,29.3,17.9,29.87,North,354,0.0,0.0,62,0.00,CLR,,0.02,WeatherDisplay:10.37,2013-03-01 22:20:00,
2013-03-01 17:25:00,29.3,17.9,29.87,NNE,14,0.0,0.0,62,0.00,CLR,,0.02,WeatherDisplay:10.37,2013-03-01 22:25:00,
2013-03-01 17:30:00,29.2,18.2,29.87,North,351,0.0,0.0,63,0.00,CLR,,0.02,WeatherDisplay:10.37,2013-03-01 22:30:00,
2013-03-01 17:35:00,28.9,17.9,29.88,NNW,345,0.0,0.0,63,0.00,CLR,,0.02,WeatherDisplay:10.37,2013-03-01 22:35:00,
2013-03-01 17:40:00,28.8,17.8,29.87,North,356,0.0,0.0,63,0.00,CLR,,0.02,WeatherDisplay:10.37,2013-03-01 22:40:00,
2013-03-01 17:45:00,28.6,17.6,29.87,North,0,0.0,0.0,63,0.00,CLR,,0.02,WeatherDisplay:10.37,2013-03-01 22:45:00,
2013-03-01 17:50:00,28.6,17.6,29.87,North,351,0.0,0.0,63,0.00,CLR,,0.02,WeatherDisplay:10.37,2013-03-01 22:50:00,
2013-03-01 17:55:00,28.6,17.6,29.88,NNW,336,0.0,0.0,63,0.00,CLR,,0.02,WeatherDisplay:10.37,2013-03-01 22:55:00,
2013-03-01 18:00:00,28.6,17.6,29.88,SE,132,0.0,0.0,63,0.00,CLR,,0.02,WeatherDisplay:10.37,2013-03-01 23:00:00,
2013-03-01 18:05:00,28.6,17.6,29.88,SSE,153,0.0,0.0,63,0.00,CLR,,0.02,WeatherDisplay:10.37,2013-03-01 23:05:00,
2013-03-01 18:10:00,28.4,17.4,29.88,South,188,0.0,0.0,63,0.00,CLR,,0.02,WeatherDisplay:10.37,2013-03-01 23:10:00,
2013-03-01 18:15:00,28.4,17.8,29.88,SSW,202,0.0,0.0,64,0.00,CLR,,0.02,WeatherDisplay:10.37,2013-03-01 23:15:00,
2013-03-01 18:20:00,28.4,17.8,29.88,SSE,168,0.0,0.0,64,0.00,CLR,,0.02,WeatherDisplay:10.37,2013-03-01 23:20:00,
2013-03-01 18:25:00,28.1,17.9,29.88,SE,135,0.0,0.0,65,0.00,CLR,,0.02,WeatherDisplay:10.37,2013-03-01 23:25:00,
2013-03-01 18:30:00,28.0,17.8,29.88,SSE,158,0.0,0.0,65,0.00,CLR,,0.02,WeatherDisplay:10.37,2013-03-01 23:30:00,
2013-03-01 18:35:00,28.0,17.8,29.89,SSW,200,0.0,0.0,65,0.00,CLR,,0.02,WeatherDisplay:10.37,2013-03-01 23:35:00,
2013-03-01 18:40:00,28.0,17.8,29.89,NW,313,0.0,0.0,65,0.00,CLR,,0.02,WeatherDisplay:10.37,2013-03-01 23:40:00,
2013-03-01 18:50:00,27.9,17.6,29.89,NNW,344,0.0,0.0,65,0.00,CLR,,0.02,WeatherDisplay:10.37,2013-03-01 23:50:00,
2013-03-01 18:55:00,27.7,17.4,29.89,NW,326,0.0,0.0,65,0.00,CLR,,0.02,WeatherDisplay:10.37,2013-03-01 23:55:00,
2013-03-01 19:00:00,27.9,17.6,29.89,NW,313,0.0,0.0,65,0.00,CLR,,0.02,WeatherDisplay:10.37,2013-03-02 00:00:00,
2013-03-01 19:05:00,27.7,17.4,29.89,NW,314,0.0,0.0,65,0.00,CLR,,0.02,WeatherDisplay:10.37,2013-03-02 00:05:00,
2013-03-01 19:10:00,27.7,17.4,29.89,NW,315,0.0,0.0,65,0.00,CLR,,0.02,WeatherDisplay:10.37,2013-03-02 00:10:00,
2013-03-01 19:15:00,27.7,17.1,29.89,NW,315,0.0,0.0,64,0.00,CLR,,0.02,WeatherDisplay:10.37,2013-03-02 00:15:00,
2013-03-01 19:25:00,27.7,17.1,29.89,NNW,333,0.0,0.0,64,0.00,CLR,,0.02,WeatherDisplay:10.37,2013-03-02 00:25:00,
2013-03-01 19:35:00,27.7,16.7,29.89,NNW,338,0.0,0.0,63,0.00,CLR,,0.02,WeatherDisplay:10.37,2013-03-02 00:35:00,
2013-03-01 19:40:00,27.6,16.7,29.89,NNW,338,0.0,0.0,63,0.00,CLR,,0.02,WeatherDisplay:10.37,2013-03-02 00:40:00,
2013-03-01 19:45:00,27.5,16.5,29.89,NNW,338,0.0,0.0,63,0.00,CLR,,0.02,WeatherDisplay:10.37,2013-03-02 00:45:00,
2013-03-01 19:50:00,27.5,16.2,29.90,NNW,338,0.0,0.0,62,0.00,CLR,,0.02,WeatherDisplay:10.37,2013-03-02 00:50:00,
2013-03-01 19:55:00,27.5,16.2,29.90,NNW,338,0.0,0.0,62,0.00,CLR,,0.02,WeatherDisplay:10.37,2013-03-02 00:55:00,
2013-03-01 20:00:00,27.5,16.2,29.90,NNW,332,0.0,0.0,62,0.00,CLR,,0.02,WeatherDisplay:10.37,2013-03-02 01:00:00,
2013-03-01 20:05:00,27.3,15.6,29.90,NNW,327,0.0,0.0,61,0.00,CLR,,0.02,WeatherDisplay:10.37,2013-03-02 01:05:00,
2013-03-01 20:10:00,27.3,15.6,29.90,NNW,346,0.0,0.0,61,0.00,CLR,,0.02,WeatherDisplay:10.37,2013-03-02 01:10:00,
2013-03-01 20:20:00,27.3,15.6,29.90,NW,314,0.0,0.0,61,0.00,CLR,,0.02,WeatherDisplay:10.37,2013-03-02 01:20:00,
2013-03-01 20:25:00,27.3,15.6,29.90,NNW,330,0.0,0.0,61,0.00,CLR,,0.02,WeatherDisplay:10.37,2013-03-02 01:25:00,
2013-03-01 20:30:00,27.1,15.5,29.90,NNW,327,0.0,0.0,61,0.00,CLR,,0.02,WeatherDisplay:10.37,2013-03-02 01:30:00,
2013-03-01 20:35:00,27.1,15.4,29.90,WNW,302,0.0,0.0,61,0.00,CLR,,0.02,WeatherDisplay:10.37,2013-03-02 01:35:00,
2013-03-01 20:45:00,27.0,15.3,29.90,NW,309,0.0,0.0,61,0.00,CLR,,0.02,WeatherDisplay:10.37,2013-03-02 01:45:00,
2013-03-01 20:50:00,27.0,15.3,29.90,WNW,301,0.0,0.0,61,0.00,CLR,,0.02,WeatherDisplay:10.37,2013-03-02 01:50:00,
2013-03-01 20:55:00,27.0,15.3,29.91,WNW,289,0.0,0.0,61,0.00,CLR,,0.02,WeatherDisplay:10.37,2013-03-02 01:55:00,
2013-03-01 21:00:00,27.0,15.3,29.90,WNW,287,0.0,0.0,61,0.00,CLR,,0.02,WeatherDisplay:10.37,2013-03-02 02:00:00,
2013-03-01 21:05:00,26.8,15.1,29.92,NW,309,0.0,0.0,61,0.00,CLR,,0.02,WeatherDisplay:10.37,2013-03-02 02:05:00,
2013-03-01 21:10:00,26.8,15.1,29.91,NW,326,0.0,0.0,61,0.00,CLR,,0.02,WeatherDisplay:10.37,2013-03-02 02:10:00,
2013-03-01 21:15:00,26.8,15.1,29.91,WNW,287,0.0,0.0,61,0.00,CLR,,0.02,WeatherDisplay:10.37,2013-03-02 02:15:00,
2013-03-01 21:20:00,26.6,14.9,29.91,West,276,0.0,0.0,61,0.00,CLR,,0.02,WeatherDisplay:10.37,2013-03-02 02:20:00,
2013-03-01 21:25:00,26.4,15.2,29.92,NW,323,0.0,0.0,62,0.00,CLR,,0.02,WeatherDisplay:10.37,2013-03-02 02:25:00,
2013-03-01 21:30:00,26.2,15.0,29.91,NNW,338,0.0,0.0,62,0.00,CLR,,0.02,WeatherDisplay:10.37,2013-03-02 02:30:00,
2013-03-01 21:35:00,26.1,15.2,29.91,NNW,338,0.0,0.0,63,0.00,CLR,,0.02,WeatherDisplay:10.37,2013-03-02 02:35:00,
2013-03-01 21:40:00,26.1,15.5,29.91,North,7,0.0,0.0,64,0.00,CLR,,0.02,WeatherDisplay:10.37,2013-03-02 02:40:00,
2013-03-01 21:45:00,26.1,15.5,29.91,ESE,122,0.0,0.0,64,0.00,CLR,,0.02,WeatherDisplay:10.37,2013-03-02 02:45:00,
2013-03-01 21:55:00,26.1,15.2,29.92,ENE,64,0.0,0.0,63,0.00,CLR,,0.02,WeatherDisplay:10.37,2013-03-02 02:55:00,
2013-03-01 22:00:00,26.1,15.2,29.92,NNW,342,0.0,0.0,63,0.00,CLR,,0.02,WeatherDisplay:10.37,2013-03-02 03:00:00,
2013-03-01 22:05:00,26.0,15.1,29.92,North,11,0.0,0.0,63,0.00,CLR,,0.02,WeatherDisplay:10.37,2013-03-02 03:05:00,
2013-03-01 22:10:00,25.9,14.6,29.92,NNE,21,0.0,0.0,62,0.00,CLR,,0.02,WeatherDisplay:10.37,2013-03-02 03:10:00,
2013-03-01 22:15:00,25.9,14.6,29.92,North,0,0.0,0.0,62,0.00,CLR,,0.02,WeatherDisplay:10.37,2013-03-02 03:15:00,
2013-03-01 22:20:00,25.9,14.6,29.92,North,0,0.0,0.0,62,0.00,CLR,,0.02,WeatherDisplay:10.37,2013-03-02 03:20:00,
2013-03-01 22:25:00,25.7,14.1,29.91,North,354,0.0,0.0,61,0.00,CLR,,0.02,WeatherDisplay:10.37,2013-03-02 03:25:00,
2013-03-01 22:30:00,25.7,14.1,29.92,North,350,0.0,0.0,61,0.00,CLR,,0.02,WeatherDisplay:10.37,2013-03-02 03:30:00,
2013-03-01 22:35:00,25.7,14.1,29.92,North,351,0.0,0.0,61,0.00,CLR,,0.02,WeatherDisplay:10.37,2013-03-02 03:35:00,
2013-03-01 22:40:00,25.7,14.1,29.91,NNW,339,0.0,0.0,61,0.00,CLR,,0.02,WeatherDisplay:10.37,2013-03-02 03:40:00,
2013-03-01 22:45:00,25.7,14.1,29.92,NNW,338,0.0,0.0,61,0.00,CLR,,0.02,WeatherDisplay:10.37,2013-03-02 03:45:00,
2013-03-01 22:50:00,25.5,13.9,29.91,NNW,347,0.0,0.0,61,0.00,CLR,,0.02,WeatherDisplay:10.37,2013-03-02 03:50:00,
2013-03-01 22:55:00,25.7,14.1,29.92,NNW,328,0.0,0.0,61,0.00,CLR,,0.02,WeatherDisplay:10.37,2013-03-02 03:55:00,
2013-03-01 23:00:00,25.7,14.1,29.92,WNW,295,0.0,0.0,61,0.00,CLR,,0.02,WeatherDisplay:10.37,2013-03-02 04:00:00,
2013-03-01 23:05:00,25.5,13.9,29.92,NW,320,0.0,0.0,61,0.00,CLR,,0.02,WeatherDisplay:10.37,2013-03-02 04:05:00,
2013-03-01 23:15:00,25.4,13.8,29.91,NNW,333,0.0,0.0,61,0.00,CLR,,0.02,WeatherDisplay:10.37,2013-03-02 04:15:00,
2013-03-01 23:25:00,25.3,14.1,29.91,NNW,342,0.0,0.0,62,0.00,CLR,,0.02,WeatherDisplay:10.37,2013-03-02 04:25:00,
2013-03-01 23:30:00,25.2,14.0,29.91,North,357,0.0,0.0,62,0.00,CLR,,0.02,WeatherDisplay:10.37,2013-03-02 04:30:00,
2013-03-01 23:35:00,25.2,14.0,29.91,ENE,74,0.0,0.0,62,0.00,CLR,,0.02,WeatherDisplay:10.37,2013-03-02 04:35:00,
2013-03-01 23:40:00,25.0,13.8,29.91,NNW,338,0.0,0.0,62,0.00,CLR,,0.02,WeatherDisplay:10.37,2013-03-02 04:40:00,
2013-03-01 23:45:00,25.0,13.8,29.91,NW,323,0.0,0.0,62,0.00,CLR,,0.02,WeatherDisplay:10.37,2013-03-02 04:45:00,
2013-03-01 23:50:00,25.0,13.8,29.91,WNW,300,0.0,0.0,62,0.00,CLR,,0.02,WeatherDisplay:10.37,2013-03-02 04:50:00,
2013-03-01 23:55:00,25.0,13.8,29.90,WNW,292,0.0,0.0,62,0.00,CLR,,0.02,WeatherDisplay:10.37,2013-03-02 04:55:00,